Regional Weather Roundup
Issued by NWS

Home | Current Version | Previous Version | Graphics & Text | Print | Product List | Glossary On
Versions: 1 2 3 4 5 6 7 8 9 10 11 12 13 14 15 16 17 18 19 20 21 22 23 24 25 26 27 28 29 30 31 32 33 34 35 36 37 38 39 40 41 42 43 44 45 46 47 48 49 50
940
ASUS43 KLMK 230802
RWRKY
KENTUCKY REGIONAL WEATHER ROUNDUP
NATIONAL WEATHER SERVICE LOUISVILLE KY
400 AM EDT MON APR 23 2018

NOTE "FAIR" INDICATES FEW OR NO CLOUDS BELOW 12,000 FEET
WITH NO SIGNIFICANT WEATHER AND/OR OBSTRUCTIONS TO VISIBILITY.

KYZ001>023-026-027-061>063-070>075-230900-
WESTERN AND SOUTH CENTRAL KENTUCKY

CITY           SKY/WX    TMP DP  RH WIND       PRES   REMARKS
PADUCAH        LGT RAIN  56  53  90 NE21G36   29.77F
HENDERSON      RAIN      51  48  89 NE16      29.93F
OWENSBORO      RAIN      52  49  89 E17G23    29.94F
HOPKINSVILLE   DRIZZLE   57  57 100 E21G28    29.78S
BOWLING GREEN  LGT RAIN  57  55  93 E15G25    29.91F
GLASGOW        NOT AVBL
$$

KYZ024-025-028>034-038-045-046-053-230900-
NORTH CENTRAL KENTUCKY

CITY           SKY/WX    TMP DP  RH WIND       PRES   REMARKS
LOUISVILLE/SDF LGT RAIN  56  44  64 E6        30.03R
LOUISVILLE/LOU LGT RAIN  58  41  53 SE5       30.05R
FORT KNOX      LGT RAIN  51  46  80 E9        30.01F
$$

KYZ035>037-039>044-047>052-055>060-089>105-230900-
NORTHEAST KENTUCKY

CITY           SKY/WX    TMP DP  RH WIND       PRES   REMARKS
LEXINGTON      MOCLDY    60  38  43 SE8       30.05S
COVINGTON      CLOUDY    56  31  38 E12       30.07F
FRANKFORT      CLOUDY    57  33  40 SE7       30.04R
$$

KYZ054-064>069-076>088-106>120-230900-
SOUTHEAST KENTUCKY

CITY           SKY/WX    TMP DP  RH WIND       PRES   REMARKS
JACKSON        CLOUDY    60  42  51 MISG      30.08F
LONDON         LGT RAIN  55  50  83 E7        30.05S
SOMERSET       NOT AVBL
MIDDLESBORO    LGT RAIN  57  48  72 CALM      30.07F
MONTICELLO     RAIN      55  52  89 N7        30.01F
$$





USA.gov is the U.S. government's official web portal to all federal, state and local government web resources and services.